GSAT-19

Last updated on Thu Oct 30 2025 00:02:50 GMT+0000 (Coordinated Universal Time)

1 42747U 17031A 25302.48061110 .00000135 00000+0 00000+0 0 9996 2 42747 0.0845 87.2477 0004306 92.6191 79.0962 1.00272600 30834
UTC large
Height (km)
Speed (km/s)
/
Latitude / Longitude
Inclination (degrees)
Orbital Period (minutes)
Azimuth
Elevation
Range (km)
Doppler Factor

Next 0 passes for location: London (51.5072 / 0.1276)

Sorry there are no passes over London.